Regional Weather Roundup
Issued by NWS Little Rock, AR

Home | Current Version | Previous Version | Text Only | Print | Product List | Glossary Off
Versions: 1 2 3 4 5 6 7 8 9 10 11 12 13 14 15 16 17 18 19 20 21 22 23 24 25 26 27 28 29 30 31 32 33 34 35 36 37 38 39 40 41 42 43 44 45 46 47 48 49 50

131
ASUS44 KLZK 131905
RWRLZK

WEATHER ROUNDUP FOR ARKANSAS
NATIONAL WEATHER SERVICE LITTLE ROCK AR
100 PM CST SAT FEB 13 2016

NOTE: "FAIR" INDICATES FEW OR NO CLOUDS BELOW 12,000 FEET WITH NO
SIGNIFICANT WEATHER AND/OR OBSTRUCTIONS TO VISIBILITY.

ARZ001-003-010-029-132000-
NORTHWEST ARKANSAS

CITY           SKY/WX    TMP DP  RH WIND       PRES   REMARKS
FAYETTEVILLE   SUNNY     44  13  28 NE3       30.39F
FORT SMITH     SUNNY     47  13  25 E10G18    30.43F
HARRISON       SUNNY     36   8  31 E10       30.45F
BENTONVILLE    SUNNY     43   7  22 SE9       30.42F
ROGERS         SUNNY     39   4  23 NE7       30.41F
SILOAM SPGS    SUNNY     43  10  26 SE6       30.41F
HIGHFILL       SUNNY     43   7  22 E7        30.40F
SPRINGDALE     SUNNY     43   5  21 E7G15     30.42F
$$

ARZ004-005-016-132000-
NORTH CENTRAL ARKANSAS

CITY           SKY/WX    TMP DP  RH WIND       PRES   REMARKS
BATESVILLE     SUNNY     37   3  23 E7        30.55F
FLIPPIN        SUNNY     36   0  21 E6        30.48F
MTN HOME       SUNNY     34  -2  21 SE8       30.49F WCI  27
$$

ARZ040-041-132000-
WEST CENTRAL ARKANSAS

CITY           SKY/WX    TMP DP  RH WIND       PRES   REMARKS
MENA           SUNNY     52  23  32 NE9       30.39F
MOUNT IDA      SUNNY     46  14  27 VRB5      30.41F
$$

ARZ009-017-025-026-028-132000-
NORTHEAST ARKANSAS

CITY           SKY/WX    TMP DP  RH WIND       PRES   REMARKS
JONESBORO      SUNNY     29   9  43 NE13G21   30.58F WCI  19
NEWPORT        SUNNY     33   3  28 NE7       30.58F WCI  27
WALNUT RIDGE   SUNNY     30   5  34 SE9       30.58F WCI  22
BLYTHEVILLE    SUNNY     34  10  37 NE13G20   30.58F WCI  25
$$

ARZ022-023-033-042-044-132000-
CENTRAL ARKANSAS

CITY           SKY/WX    TMP DP  RH WIND       PRES   REMARKS
LITTLE ROCK    MOSUNNY   40  13  33 E9G21     30.52F
N LITTLE ROCK  MOSUNNY   39  11  30 E12       30.52F
JACKSONVILLE   SUNNY     39   6  25 NE12      30.51F
SEARCY         SUNNY     37   5  25 NE12      30.57F
HOT SPRINGS    SUNNY     43  15  32 SE10      30.47F
RUSSELLVILLE   SUNNY     41   7  24 E9        30.49F
CLINTON        FAIR      39   3  22 CALM      30.52F
$$

ARZ036-132000-
EAST ARKANSAS

CITY           SKY/WX    TMP DP  RH WIND       PRES   REMARKS
WEST MEMPHIS   SUNNY     35  12  38 NE7       30.53F WCI  29
$$

ARZ050-053-066-070-073-132000-
SOUTHWEST ARKANSAS

CITY           SKY/WX    TMP DP  RH WIND       PRES   REMARKS
ARKADELPHIA    FAIR      47  11  23 VRB6      30.49F
CAMDEN         SUNNY     50  16  25 E8        30.49F
TEXARKANA      SUNNY     50  28  42 E8        30.43F
EL DORADO      SUNNY     48  19  31 E12       30.46F
DE QUEEN       SUNNY     50  25  37 E8        30.42F
$$

ARZ056-057-069-132000-
SOUTHEAST ARKANSAS

CITY           SKY/WX    TMP DP  RH WIND       PRES   REMARKS
PINE BLUFF     SUNNY     40  10  29 N7        30.53F
STUTTGART      SUNNY     37  10  32 NE12      30.54F
MONTICELLO     SUNNY     45   9  23 NE12G20   30.50F

$$






USA.gov is the U.S. government's official web portal to all federal, state and local government web resources and services.